East Wenatchee, WA

3:57 AM PST on February 22, 2017 (GMT -0800)
Pangborn Memorial

Weather History for KEAT - June, 2014

Change the Weather History Date:

Wednesday, June 4, 2014

  Actual Average Record
Temperature  
Mean Temperature 59 °F 57 °F  
Max Temperature 76 °F 69 °F 98 °F (1969)
Min Temperature 42 °F 45 °F 40 °F (2015)
Degree Days  
Heating Degree Days 6 8  
Month to date heating degree days 19 33  
Since 1 June heating degree days 19 33  
Since 1 July heating degree days 7066 6984  
Cooling Degree Days 0 0  
Month to date cooling degree days 0 0  
Year to date cooling degree days 0 5  
Since 1 June cooling degree days 0 0  
Growing Degree Days 22 (Base 50)    
Moisture  
Dew Point 34 °F    
Average Humidity 0    
Maximum Humidity 0    
Minimum Humidity 0    
Precipitation  
Precipitation 0.00 in 0.06 in 0.58 in (1993)
Month to date precipitation 0.25 0.26  
Year to date precipitation 7.33 8.29  
Snow  
Snow 0.00 in 0.00 in - ()
Month to date snowfall 0.0 0.0  
Since 1 June snowfall 0.0 0.0  
Since 1 July snowfall 31.0 54.1  
Snow Depth 0.00 in    
Sea Level Pressure  
Sea Level Pressure 29.93 in    
Wind  
Wind Speed 12 mph (NW)    
Max Wind Speed 24 mph    
Max Gust Speed 0 mph    
Visibility 10 miles    
Events      
T = Trace of Precipitation, MM = Missing Value Source: NWS Daily Summary

Daily Weather History Graph

Daily Weather History Graph

Search for Another Location

Airport or City:

Trip Planner

Search our weather history database for the weather conditions in past years. The results will help you decide how hot, cold, wet, or windy it might be!

Date:

Astronomy

Jun. 04, 2014 Rise Set
Actual Time 5:06 AM PDT 8:52 PM PDT
Civil Twilight 4:26 AM PDT 9:32 PM PDT
Nautical Twilight 3:33 AM PDT 10:25 PM PDT
Astronomical Twilight 2:16 AM PDT 11:43 PM PDT
Moon 11:50 AM PDT (6/4) 12:35 AM PDT (6/4)
Length of Visible Light 17h 05m
Length of Day
15h 46m
Waxing Crescent, 40% of the Moon is Illuminated
Jun 4
Waxing Crescent
Jun 5
First Quarter
Jun 12
Full
Jun 19
Last Quarter
Jun 27
New

Hourly Weather History & Observations

Time (PDT) Temp. Dew Point Humidity Pressure Visibility Wind Dir Wind Speed Gust Speed Precip Events Conditions
12:55 AM 64.9 °F 41.0 °F 42% 29.94 in 10.0 mi WNW 10.4 mph - N/A   Clear
1:55 AM 63.0 °F 41.0 °F 45% 29.95 in 10.0 mi NW 11.5 mph - N/A   Clear
2:55 AM 61.0 °F 41.0 °F 48% 29.96 in 10.0 mi NNW 12.7 mph - N/A   Clear
3:55 AM 61.0 °F 39.9 °F 46% 29.97 in 10.0 mi NW 13.8 mph - N/A   Clear
4:55 AM 57.9 °F 39.0 °F 49% 29.98 in 10.0 mi NW 10.4 mph - N/A   Clear
5:55 AM 57.9 °F 37.9 °F 47% 29.98 in 10.0 mi NW 9.2 mph - N/A   Clear
6:55 AM 61.0 °F 37.9 °F 42% 29.99 in 10.0 mi NW 12.7 mph - N/A   Clear
7:55 AM 64.0 °F 37.0 °F 37% 29.99 in 10.0 mi NW 16.1 mph - N/A   Clear
8:55 AM 66.9 °F 37.0 °F 33% 29.99 in 10.0 mi NNW 13.8 mph 20.7 mph N/A   Clear
9:55 AM 69.1 °F 35.1 °F 29% 29.98 in 10.0 mi West 5.8 mph - N/A   Clear
10:55 AM 72.0 °F 32.0 °F 23% 29.96 in 10.0 mi WNW 5.8 mph - N/A   Clear
11:55 AM 75.0 °F 34.0 °F 22% 29.94 in 10.0 mi WSW 4.6 mph - N/A   Clear
12:55 PM 80.1 °F 30.9 °F 17% 29.91 in 10.0 mi WNW 6.9 mph - N/A   Clear
1:55 PM 82.0 °F 30.0 °F 15% 29.89 in 10.0 mi Variable 3.5 mph - N/A   Clear
2:55 PM 84.0 °F 30.0 °F 14% 29.86 in 10.0 mi West 8.1 mph - N/A   Clear
3:55 PM 87.1 °F 25.0 °F 10% 29.85 in 10.0 mi WNW 20.7 mph 26.5 mph N/A   Clear
4:55 PM 84.9 °F 21.0 °F 10% 29.86 in 10.0 mi NW 23.0 mph - N/A   Clear
5:55 PM 82.9 °F 19.0 °F 9% 29.86 in 10.0 mi NW 24.2 mph - N/A   Clear
6:55 PM 80.1 °F 23.0 °F 12% 29.86 in 10.0 mi NW 23.0 mph - N/A   Clear
8:55 PM 71.1 °F 33.1 °F 25% 29.88 in 10.0 mi WNW 20.7 mph - N/A   Clear
9:55 PM 68.0 °F 35.1 °F 30% 29.89 in 10.0 mi WNW 21.9 mph - N/A   Clear
10:55 PM 66.0 °F 36.0 °F 33% 29.91 in 10.0 mi NW 13.8 mph 21.9 mph N/A   Clear
11:55 PM 64.0 °F 36.0 °F 35% 29.91 in 10.0 mi WNW 19.6 mph - N/A   Clear